Orbital Elements at Epoch 2459000.5 (2020-May-31.0) TDB
Reference: JPL 15 (heliocentric ecliptic J2000)
Element | Value | Uncertainty (1-sigma) | Units |
e | .1077482649764525 | 4.4499e-08 | |
a | 2.312940187885541 | 1.2357e-08 | au |
q | 2.063724895646564 | 1.0129e-07 | au |
i | 6.992900956123136 | 5.1864e-06 | deg |
node | 105.01070070815 | 4.1712e-05 | deg |
peri | 167.3840099912865 | 5.1028e-05 | deg |
M | 107.2880660486075 | 2.6754e-05 | deg |
tp | 2458617.592435411336 (2019-May-14.09243541) | 9.5678e-05 | TDB |
period | 1284.828111166313 3.52 | 1.0297e-05 2.819e-08 | d yr |
n | .2801931222326752 | 2.2455e-09 | deg/d |
Q | 2.562155480124518 | 1.3689e-08 | au |
|
| | Orbit Determination Parameters
Additional Information
|